| time (UTC) | temp C | wind direction | speed KPH | gust KPH | rain 1hr cm | rain 24hr cm | rain mn cm | humidity % | barometer mb |
| 20260906091514 | 22 | 65 | 3.2 | 6.4 | 0.00 | 0.00 | 0.00 | 97 | 1014.9 |
| 20260906091010 | 22 | 89 | 4.8 | 6.4 | 0.00 | 0.00 | 0.00 | 96 | 1015.1 |
| 20260906090504 | 22 | 50 | 4.8 | 8.0 | 0.00 | 0.00 | 0.00 | 97 | 1014.8 |
| 20260906085959 | 22 | 92 | 3.2 | 8.0 | 0.00 | 0.00 | 0.00 | 97 | 1014.7 |
| 20260906085458 | 22 | 80 | 0.0 | 8.0 | 0.00 | 0.00 | 0.00 | 97 | 1014.7 |
| 20260906084957 | 22 | 99 | 3.2 | 6.4 | 0.00 | 0.00 | 0.00 | 97 | 1014.7 |
| 20260906084452 | 22 | 84 | 4.8 | 6.4 | 0.00 | 0.00 | 0.00 | 97 | 1014.7 |
| 20260906083951 | 22 | 113 | 3.2 | 4.8 | 0.00 | 0.00 | 0.00 | 97 | 1014.5 |
| 20260906083448 | 22 | 112 | 1.6 | 8.0 | 0.00 | 0.00 | 0.00 | 97 | 1014.7 |
| 20260906082946 | 22 | 91 | 4.8 | 8.0 | 0.00 | 0.00 | 0.00 | 97 | 1014.8 |
| 20260906082442 | 22 | 76 | 3.2 | 6.4 | 0.00 | 0.00 | 0.00 | 97 | 1014.5 |
| 20260906081938 | 22 | 19 | 6.4 | 11.3 | 0.00 | 0.00 | 0.00 | 98 | 1014.4 |
| 20260906081433 | 22 | 62 | 4.8 | 8.0 | 0.00 | 0.00 | 0.00 | 97 | 1014.5 |
| 20260906080929 | 22 | 79 | 4.8 | 6.4 | 0.00 | 0.00 | 0.00 | 97 | 1014.4 |
| 20260906080425 | 22 | 140 | 4.8 | 8.0 | 0.00 | 0.00 | 0.00 | 97 | 1014.6 |
| 20260906075924 | 22 | 60 | 4.8 | 11.3 | 0.00 | 0.00 | 0.00 | 98 | 1014.5 |
| 20260906075414 | 22 | 88 | 4.8 | 11.3 | 0.00 | 0.00 | 0.00 | 98 | 1014.4 |
| 20260906074909 | 22 | 72 | 4.8 | 6.4 | 0.00 | 0.00 | 0.00 | 98 | 1014.6 |
| 20260906074409 | 22 | 92 | 3.2 | 4.8 | 0.00 | 0.00 | 0.00 | 98 | 1014.6 |
| 20260906073908 | 22 | 117 | 3.2 | 4.8 | 0.00 | 0.00 | 0.00 | 98 | 1014.4 |
| 20260906073403 | 23 | 89 | 3.2 | 4.8 | 0.00 | 0.00 | 0.00 | 98 | 1014.6 |
| 20260906072859 | 23 | 58 | 1.6 | 4.8 | 0.00 | 0.00 | 0.00 | 98 | 1014.7 |
| 20260906072354 | 23 | 156 | 6.4 | 8.0 | 0.00 | 0.00 | 0.00 | 98 | 1014.7 |
| 20260906071850 | 22 | 113 | 0.0 | 6.4 | 0.00 | 0.00 | 0.00 | 98 | 1014.6 |
| 20260906071346 | 23 | 128 | 3.2 | 4.8 | 0.00 | 0.00 | 0.00 | 98 | 1014.7 |
| 20260906070841 | 23 | 84 | 3.2 | 8.0 | 0.00 | 0.00 | 0.00 | 98 | 1014.8 |
| 20260906070336 | 23 | 47 | 4.8 | 8.0 | 0.00 | 0.00 | 0.00 | 98 | 1014.7 |
| 20260906065832 | 23 | 50 | 3.2 | 4.8 | 0.00 | 0.00 | 0.00 | 98 | 1014.8 |
| 20260906065321 | 23 | 94 | 1.6 | 4.8 | 0.00 | 0.00 | 0.00 | 98 | 1014.7 |
| 20260906064816 | 23 | 143 | 3.2 | 6.4 | 0.00 | 0.00 | 0.00 | 97 | 1014.7 |
| 20260906064313 | 23 | 77 | 3.2 | 4.8 | 0.00 | 0.00 | 0.00 | 97 | 1014.8 |
| 20260906063807 | 23 | 92 | 1.6 | 4.8 | 0.00 | 0.00 | 0.00 | 97 | 1015.0 |
| 20260906063303 | 23 | 92 | 3.2 | 4.8 | 0.00 | 0.00 | 0.00 | 96 | 1014.7 |
| 20260906062758 | 23 | 110 | 4.8 | 4.8 | 0.00 | 0.00 | 0.00 | 96 | 1014.7 |
| 20260906062257 | 23 | 85 | 3.2 | 4.8 | 0.00 | 0.00 | 0.00 | 96 | 1014.9 |
| 20260906061752 | 23 | 93 | 3.2 | 6.4 | 0.00 | 0.00 | 0.00 | 95 | 1014.9 |
| 20260906061249 | 23 | 108 | 4.8 | 4.8 | 0.00 | 0.00 | 0.00 | 95 | 1015.1 |
| 20260906060743 | 23 | 89 | 3.2 | 4.8 | 0.00 | 0.00 | 0.00 | 95 | 1014.6 |
| 20260906060241 | 23 | 68 | 4.8 | 4.8 | 0.00 | 0.00 | 0.00 | 95 | 1014.7 |
| 20260906055736 | 23 | 87 | 1.6 | 4.8 | 0.00 | 0.00 | 0.00 | 94 | 1015.0 |
| 20260906055231 | 23 | 111 | 3.2 | 6.4 | 0.00 | 0.00 | 0.00 | 94 | 1014.7 |
| 20260906054727 | 23 | 111 | 4.8 | 4.8 | 0.00 | 0.00 | 0.00 | 94 | 1014.6 |
| 20260906054222 | 23 | 52 | 3.2 | 4.8 | 0.00 | 0.00 | 0.00 | 94 | 1014.7 |
| 20260906053719 | 23 | 82 | 1.6 | 4.8 | 0.00 | 0.00 | 0.00 | 94 | 1014.8 |
| 20260906053214 | 23 | 85 | 1.6 | 4.8 | 0.00 | 0.00 | 0.00 | 93 | 1014.6 |
| 20260906052709 | 24 | 55 | 3.2 | 4.8 | 0.00 | 0.00 | 0.00 | 93 | 1015.0 |
| 20260906052205 | 24 | 69 | 3.2 | 6.4 | 0.00 | 0.00 | 0.00 | 92 | 1014.7 |
| 20260906051702 | 24 | 68 | 4.8 | 6.4 | 0.00 | 0.00 | 0.00 | 92 | 1014.7 |
| 20260906051201 | 24 | 53 | 3.2 | 4.8 | 0.00 | 0.00 | 0.00 | 92 | 1014.6 |
| 20260906050657 | 24 | 88 | 3.2 | 4.8 | 0.00 | 0.00 | 0.00 | 92 | 1014.5 |
| 20260906050152 | 25 | 85 | 3.2 | 4.8 | 0.00 | 0.00 | 0.00 | 91 | 1014.6 |
| 20260906045650 | 25 | 60 | 3.2 | 6.4 | 0.00 | 0.00 | 0.00 | 91 | 1014.4 |
| 20260906045145 | 25 | 75 | 3.2 | 4.8 | 0.00 | 0.00 | 0.00 | 90 | 1014.7 |
| 20260906044641 | 25 | 111 | 3.2 | 4.8 | 0.00 | 0.00 | 0.00 | 90 | 1014.5 |
| 20260906044137 | 25 | 89 | 1.6 | 4.8 | 0.00 | 0.00 | 0.00 | 89 | 1014.3 |
| 20260906043633 | 25 | 72 | 4.8 | 4.8 | 0.00 | 0.00 | 0.00 | 89 | 1014.5 |
| 20260906043128 | 25 | 80 | 3.2 | 4.8 | 0.00 | 0.00 | 0.00 | 88 | 1014.4 |
| 20260906042627 | 25 | 74 | 3.2 | 3.2 | 0.00 | 0.00 | 0.00 | 89 | 1014.3 |
| 20260906042121 | 25 | 89 | 1.6 | 3.2 | 0.00 | 0.00 | 0.00 | 88 | 1014.1 |
| 20260906041617 | 25 | 89 | 1.6 | 3.2 | 0.00 | 0.00 | 0.00 | 88 | 1014.2 |
| 20260906041112 | 25 | 113 | 3.2 | 4.8 | 0.00 | 0.00 | 0.00 | 88 | 1014.1 |
| 20260906040608 | 25 | 124 | 0.0 | 4.8 | 0.00 | 0.00 | 0.00 | 87 | 1014.3 |
| 20260906035558 | 25 | 134 | 3.2 | 4.8 | 0.00 | 0.00 | 0.00 | 87 | 1014.2 |
| 20260906035053 | 26 | 66 | 3.2 | 4.8 | 0.00 | 0.00 | 0.00 | 87 | 1014.3 |
| 20260906034548 | 26 | 133 | 1.6 | 3.2 | 0.00 | 0.00 | 0.00 | 86 | 1014.1 |
| 20260906034043 | 26 | 69 | 1.6 | 6.4 | 0.00 | 0.00 | 0.00 | 86 | 1014.3 |
| 20260906033538 | 26 | 71 | 6.4 | 8.0 | 0.00 | 0.00 | 0.00 | 86 | 1014.2 |
| 20260906033033 | 26 | 84 | 3.2 | 4.8 | 0.00 | 0.00 | 0.00 | 86 | 1014.0 |
| 20260906032530 | 26 | 118 | 3.2 | 6.4 | 0.00 | 0.00 | 0.00 | 85 | 1013.8 |
| 20260906032025 | 26 | 71 | 4.8 | 8.0 | 0.00 | 0.00 | 0.00 | 85 | 1014.2 |
| 20260906031520 | 26 | 68 | 4.8 | 6.4 | 0.00 | 0.00 | 0.00 | 85 | 1014.0 |
| 20260906031015 | 26 | 80 | 6.4 | 8.0 | 0.00 | 0.00 | 0.00 | 85 | 1014.2 |
| 20260906030514 | 26 | 73 | 3.2 | 6.4 | 0.00 | 0.00 | 0.00 | 85 | 1013.8 |
| 20260906030009 | 27 | 47 | 4.8 | 4.8 | 0.00 | 0.00 | 0.00 | 84 | 1013.8 |
| 20260906025508 | 27 | 92 | 3.2 | 6.4 | 0.00 | 0.00 | 0.00 | 84 | 1013.8 |
| 20260906025007 | 27 | 66 | 4.8 | 8.0 | 0.00 | 0.00 | 0.00 | 84 | 1013.7 |
| 20260906024502 | 27 | 50 | 6.4 | 6.4 | 0.00 | 0.00 | 0.00 | 83 | 1014.0 |
| 20260906023956 | 27 | 56 | 4.8 | 6.4 | 0.00 | 0.00 | 0.00 | 83 | 1013.6 |
| 20260906023452 | 27 | 40 | 4.8 | 6.4 | 0.00 | 0.00 | 0.00 | 83 | 1013.8 |
| 20260906022947 | 27 | 78 | 3.2 | 8.0 | 0.00 | 0.00 | 0.00 | 82 | 1013.8 |
| 20260906022442 | 27 | 78 | 4.8 | 8.0 | 0.00 | 0.00 | 0.00 | 82 | 1013.6 |
| 20260906021937 | 27 | 74 | 4.8 | 8.0 | 0.00 | 0.00 | 0.00 | 82 | 1013.5 |
| 20260906021432 | 27 | 71 | 3.2 | 8.0 | 0.00 | 0.00 | 0.00 | 82 | 1013.3 |
| 20260906020926 | 27 | 74 | 4.8 | 8.0 | 0.00 | 0.00 | 0.00 | 81 | 1013.3 |
| 20260906020421 | 28 | 79 | 4.8 | 8.0 | 0.00 | 0.00 | 0.00 | 81 | 1013.4 |
| 20260906015915 | 28 | 92 | 3.2 | 8.0 | 0.00 | 0.00 | 0.00 | 81 | 1013.5 |
| 20260906015414 | 28 | 70 | 6.4 | 8.0 | 0.00 | 0.00 | 0.00 | 81 | 1013.2 |
| 20260906014909 | 28 | 61 | 4.8 | 8.0 | 0.00 | 0.00 | 0.00 | 79 | 1013.5 |
| 20260906014409 | 28 | 58 | 6.4 | 6.4 | 0.00 | 0.00 | 0.00 | 79 | 1013.3 |
| 20260906013905 | 28 | 61 | 4.8 | 8.0 | 0.00 | 0.00 | 0.00 | 79 | 1013.1 |
| 20260906013401 | 28 | 81 | 3.2 | 4.8 | 0.00 | 0.00 | 0.00 | 83 | 1012.9 |
| 20260906012856 | 28 | 75 | 3.2 | 4.8 | 0.00 | 0.00 | 0.00 | 83 | 1012.8 |
| 20260906012351 | 28 | 110 | 1.6 | 3.2 | 0.00 | 0.00 | 0.00 | 84 | 1012.7 |
| 20260906011850 | 28 | 104 | 0.0 | 3.2 | 0.00 | 0.00 | 0.00 | 85 | 1012.8 |
| 20260906011345 | 28 | 230 | 0.0 | 1.6 | 0.00 | 0.00 | 0.00 | 85 | 1012.7 |
| 20260906010841 | 28 | 89 | 0.0 | 1.6 | 0.00 | 0.00 | 0.00 | 85 | 1012.5 |
| 20260906010337 | 28 | 63 | 1.6 | 3.2 | 0.00 | 0.00 | 0.00 | 85 | 1012.5 |
| 20260906005832 | 28 | 230 | 0.0 | 0.0 | 0.00 | 0.00 | 0.00 | 83 | 1012.4 |
| 20260906005331 | 28 | 230 | 0.0 | 1.6 | 0.00 | 0.00 | 0.00 | 83 | 1012.3 |
| 20260906004824 | 28 | 326 | 0.0 | 1.6 | 0.00 | 0.00 | 0.00 | 83 | 1012.3 |
| 20260906004324 | 28 | 256 | 0.0 | 1.6 | 0.00 | 0.00 | 0.00 | 83 | 1012.5 |
| 20260906003819 | 28 | 269 | 0.0 | 1.6 | 0.00 | 0.00 | 0.00 | 82 | 1012.3 |
| 20260906003315 | 29 | 247 | 1.6 | 3.2 | 0.00 | 0.00 | 0.00 | 82 | 1012.4 |
| 20260906002810 | 29 | 238 | 1.6 | 3.2 | 0.00 | 0.00 | 0.00 | 81 | 1012.3 |
| 20260906002309 | 29 | 260 | 0.0 | 1.6 | 0.00 | 0.00 | 0.00 | 80 | 1012.5 |
| 20260906001805 | 30 | 252 | 0.0 | 1.6 | 0.00 | 0.00 | 0.00 | 79 | 1012.4 |
| 20260906001300 | 30 | 252 | 0.0 | 1.6 | 0.00 | 0.00 | 0.00 | 79 | 1012.5 |
| 20260906000755 | 30 | 269 | 0.0 | 3.2 | 0.00 | 0.00 | 0.00 | 78 | 1012.7 |
| 20260906000250 | 30 | 257 | 0.0 | 1.6 | 0.00 | 0.00 | 0.00 | 77 | 1012.6 |
| 20260905235745 | 30 | 281 | 0.0 | 1.6 | 0.00 | 0.00 | 0.00 | 77 | 1012.7 |
| 20260905235244 | 30 | 269 | 0.0 | 1.6 | 0.00 | 0.00 | 0.00 | 75 | 1012.7 |
| 20260905234740 | 31 | 309 | 0.0 | 0.0 | 0.00 | 0.00 | 0.00 | 73 | 1012.6 |
| 20260905234235 | 31 | 343 | 0.0 | 1.6 | 0.00 | 0.00 | 0.00 | 72 | 1012.7 |
| 20260905233730 | 31 | 297 | 0.0 | 1.6 | 0.00 | 0.00 | 0.00 | 72 | 1012.7 |
| 20260905233230 | 31 | 315 | 0.0 | 3.2 | 0.00 | 0.00 | 0.00 | 71 | 1012.6 |
| 20260905232724 | 31 | 242 | 0.0 | 0.0 | 0.00 | 0.00 | 0.00 | 70 | 1012.7 |
| 20260905232220 | 31 | 310 | 0.0 | 1.6 | 0.00 | 0.00 | 0.00 | 70 | 1012.7 |
| 20260905231716 | 31 | 164 | 0.0 | 3.2 | 0.00 | 0.00 | 0.00 | 70 | 1012.7 |
| 20260905231212 | 31 | 89 | 0.0 | 0.0 | 0.00 | 0.00 | 0.00 | 71 | 1012.5 |
| 20260905230707 | 31 | 50 | 0.0 | 1.6 | 0.00 | 0.00 | 0.00 | 70 | 1012.4 |
| 20260905230205 | 32 | 25 | 0.0 | 3.2 | 0.00 | 0.00 | 0.00 | 68 | 1012.2 |
| 20260905225705 | 32 | 345 | 0.0 | 1.6 | 0.00 | 0.00 | 0.00 | 69 | 1012.6 |
| 20260905225159 | 32 | 51 | 0.0 | 3.2 | 0.00 | 0.00 | 0.00 | 66 | 1012.4 |
| 20260905224653 | 32 | 55 | 0.0 | 3.2 | 0.00 | 0.00 | 0.00 | 66 | 1012.3 |
| 20260905224148 | 32 | 37 | 0.0 | 8.0 | 0.00 | 0.00 | 0.00 | 66 | 1012.5 |
| 20260905223645 | 32 | 335 | 0.0 | 4.8 | 0.00 | 0.00 | 0.00 | 66 | 1012.3 |
| 20260905223142 | 32 | 49 | 3.2 | 4.8 | 0.00 | 0.00 | 0.00 | 69 | 1012.3 |
| 20260905222637 | 32 | 104 | 0.0 | 4.8 | 0.00 | 0.00 | 0.00 | 67 | 1012.2 |
| 20260905222131 | 32 | 75 | 3.2 | 8.0 | 0.00 | 0.00 | 0.00 | 68 | 1012.2 |
| 20260905221627 | 32 | 116 | 1.6 | 3.2 | 0.00 | 0.00 | 0.00 | 68 | 1012.3 |
| 20260905221123 | 32 | 308 | 3.2 | 4.8 | 0.00 | 0.00 | 0.00 | 67 | 1012.2 |
| 20260905220619 | 32 | 240 | 0.0 | 4.8 | 0.00 | 0.00 | 0.00 | 66 | 1012.0 |
| 20260905220115 | 32 | 78 | 3.2 | 6.4 | 0.00 | 0.00 | 0.00 | 66 | 1012.1 |
| 20260905215615 | 33 | 356 | 0.0 | 3.2 | 0.00 | 0.00 | 0.00 | 64 | 1012.1 |
| 20260905215110 | 32 | 351 | 1.6 | 4.8 | 0.00 | 0.00 | 0.00 | 66 | 1012.2 |
| 20260905214606 | 32 | 35 | 0.0 | 4.8 | 0.00 | 0.00 | 0.00 | 65 | 1012.3 |
| 20260905214106 | 32 | 98 | 4.8 | 4.8 | 0.00 | 0.00 | 0.00 | 66 | 1012.4 |
| 20260905213601 | 32 | 47 | 1.6 | 4.8 | 0.00 | 0.00 | 0.00 | 65 | 1012.3 |
| 20260905213056 | 33 | 43 | 1.6 | 4.8 | 0.00 | 0.00 | 0.00 | 66 | 1012.3 |
| 20260905212551 | 33 | 311 | 1.6 | 3.2 | 0.00 | 0.00 | 0.00 | 64 | 1012.4 |
| 20260905212050 | 32 | 64 | 8.0 | 8.0 | 0.00 | 0.00 | 0.00 | 63 | 1012.2 |
| 20260905211546 | 32 | 99 | 1.6 | 6.4 | 0.00 | 0.00 | 0.00 | 65 | 1012.3 |
| 20260905211041 | 33 | 80 | 1.6 | 6.4 | 0.00 | 0.00 | 0.00 | 67 | 1012.4 |
| 20260905210537 | 32 | 62 | 0.0 | 8.0 | 0.00 | 0.00 | 0.00 | 65 | 1012.3 |
| 20260905210032 | 33 | 302 | 0.0 | 4.8 | 0.00 | 0.00 | 0.00 | 63 | 1012.4 |
| 20260905205531 | 33 | 57 | 0.0 | 8.0 | 0.00 | 0.00 | 0.00 | 62 | 1012.5 |
| 20260905205031 | 33 | 15 | 4.8 | 4.8 | 0.00 | 0.00 | 0.00 | 63 | 1012.7 |
| 20260905204526 | 33 | 103 | 3.2 | 6.4 | 0.00 | 0.00 | 0.00 | 61 | 1012.8 |
| 20260905204021 | 33 | 284 | 1.6 | 4.8 | 0.00 | 0.00 | 0.00 | 62 | 1012.9 |
| 20260905203521 | 33 | 38 | 3.2 | 6.4 | 0.00 | 0.00 | 0.00 | 61 | 1013.0 |
| 20260905203016 | 33 | 281 | 0.0 | 4.8 | 0.00 | 0.00 | 0.00 | 60 | 1013.1 |
| 20260905202511 | 33 | 81 | 3.2 | 6.4 | 0.00 | 0.00 | 0.00 | 62 | 1012.7 |
| 20260905202007 | 33 | 55 | 3.2 | 4.8 | 0.00 | 0.00 | 0.00 | 64 | 1013.2 |
| 20260905201502 | 33 | 35 | 3.2 | 8.0 | 0.00 | 0.00 | 0.00 | 62 | 1013.1 |
| 20260905201002 | 33 | 311 | 3.2 | 4.8 | 0.00 | 0.00 | 0.00 | 59 | 1013.1 |
| 20260905200457 | 34 | 33 | 1.6 | 4.8 | 0.00 | 0.00 | 0.00 | 59 | 1013.1 |
| 20260905195956 | 34 | 194 | 4.8 | 9.7 | 0.00 | 0.00 | 0.00 | 57 | 1013.0 |
| 20260905195451 | 34 | 242 | 6.4 | 11.3 | 0.00 | 0.00 | 0.00 | 58 | 1013.0 |
| 20260905194947 | 33 | 320 | 1.6 | 6.4 | 0.00 | 0.00 | 0.00 | 63 | 1012.9 |
| 20260905194446 | 33 | 205 | 0.0 | 8.0 | 0.00 | 0.00 | 0.00 | 58 | 1013.2 |
| 20260905193941 | 33 | 43 | 0.0 | 3.2 | 0.00 | 0.00 | 0.00 | 61 | 1013.0 |
| 20260905193440 | 33 | 322 | 0.0 | 4.8 | 0.00 | 0.00 | 0.00 | 60 | 1013.4 |
| 20260905192936 | 34 | 356 | 3.2 | 4.8 | 0.00 | 0.00 | 0.00 | 61 | 1013.4 |
| 20260905192431 | 34 | 344 | 3.2 | 4.8 | 0.00 | 0.00 | 0.00 | 60 | 1013.3 |
| 20260905191926 | 35 | 323 | 3.2 | 4.8 | 0.00 | 0.00 | 0.00 | 59 | 1013.2 |
| 20260905191425 | 34 | 4 | 3.2 | 6.4 | 0.00 | 0.00 | 0.00 | 58 | 1013.3 |
| 20260905190920 | 35 | 70 | 0.0 | 4.8 | 0.00 | 0.00 | 0.00 | 60 | 1013.5 |
| 20260905190418 | 34 | 35 | 3.2 | 11.3 | 0.00 | 0.00 | 0.00 | 61 | 1013.6 |
| 20260905185916 | 35 | 207 | 3.2 | 9.7 | 0.00 | 0.00 | 0.00 | 57 | 1013.8 |
| 20260905185412 | 35 | 312 | 0.0 | 4.8 | 0.00 | 0.00 | 0.00 | 55 | 1014.0 |
| 20260905184910 | 35 | 233 | 3.2 | 6.4 | 0.00 | 0.00 | 0.00 | 58 | 1014.0 |
| 20260905184405 | 33 | 235 | 3.2 | 11.3 | 0.00 | 0.00 | 0.00 | 59 | 1014.0 |
| 20260905183903 | 33 | 291 | 4.8 | 12.9 | 0.00 | 0.00 | 0.00 | 60 | 1014.1 |
| 20260905183358 | 33 | 266 | 6.4 | 12.9 | 0.00 | 0.00 | 0.00 | 60 | 1014.3 |
| 20260905182854 | 33 | 244 | 1.6 | 8.0 | 0.00 | 0.00 | 0.00 | 59 | 1014.4 |
| 20260905182353 | 34 | 240 | 0.0 | 6.4 | 0.00 | 0.00 | 0.00 | 57 | 1014.6 |
| 20260905181849 | 33 | 159 | 1.6 | 6.4 | 0.00 | 0.00 | 0.00 | 60 | 1014.5 |
| 20260905181349 | 32 | 211 | 12.9 | 17.7 | 0.00 | 0.00 | 0.00 | 61 | 1014.4 |
| 20260905180848 | 32 | 124 | 0.0 | 17.7 | 0.00 | 0.00 | 0.00 | 62 | 1014.3 |
| 20260905180343 | 33 | 232 | 3.2 | 9.7 | 0.00 | 0.00 | 0.00 | 60 | 1014.6 |
| 20260905175837 | 32 | 165 | 3.2 | 8.0 | 0.00 | 0.00 | 0.00 | 62 | 1014.4 |
| 20260905175332 | 33 | 261 | 6.4 | 8.0 | 0.00 | 0.00 | 0.00 | 60 | 1014.5 |
| 20260905174827 | 33 | 160 | 3.2 | 4.8 | 0.00 | 0.00 | 0.00 | 61 | 1014.6 |
| 20260905174323 | 32 | 189 | 0.0 | 9.7 | 0.00 | 0.00 | 0.00 | 61 | 1014.7 |
| 20260905173818 | 32 | 87 | 0.0 | 6.4 | 0.00 | 0.00 | 0.00 | 65 | 1014.7 |
| 20260905173315 | 31 | 131 | 1.6 | 8.0 | 0.00 | 0.00 | 0.00 | 64 | 1014.6 |
| 20260905172814 | 31 | 175 | 3.2 | 8.0 | 0.00 | 0.00 | 0.00 | 65 | 1014.5 |
| 20260905172312 | 31 | 249 | 8.0 | 11.3 | 0.00 | 0.00 | 0.00 | 63 | 1014.6 |
| 20260905171809 | 32 | 225 | 4.8 | 11.3 | 0.00 | 0.00 | 0.00 | 64 | 1014.7 |
| 20260905171305 | 31 | 147 | 1.6 | 8.0 | 0.00 | 0.00 | 0.00 | 65 | 1014.9 |
| 20260905170801 | 31 | 174 | 3.2 | 6.4 | 0.00 | 0.00 | 0.00 | 66 | 1015.0 |
| 20260905170257 | 31 | 260 | 8.0 | 11.3 | 0.00 | 0.00 | 0.00 | 64 | 1015.1 |
| 20260905165756 | 31 | 228 | 11.3 | 17.7 | 0.00 | 0.00 | 0.00 | 64 | 1015.2 |
| 20260905165252 | 30 | 242 | 11.3 | 11.3 | 0.00 | 0.00 | 0.00 | 65 | 1015.3 |
| 20260905164752 | 30 | 212 | 6.4 | 11.3 | 0.00 | 0.00 | 0.00 | 65 | 1015.3 |
| 20260905164246 | 30 | 246 | 6.4 | 11.3 | 0.00 | 0.00 | 0.00 | 65 | 1015.8 |
| 20260905163742 | 30 | 18 | 1.6 | 9.7 | 0.00 | 0.00 | 0.00 | 65 | 1015.5 |
| 20260905163238 | 30 | 279 | 0.0 | 6.4 | 0.00 | 0.00 | 0.00 | 65 | 1015.5 |
| 20260905162734 | 31 | 210 | 4.8 | 8.0 | 0.00 | 0.00 | 0.00 | 65 | 1015.7 |
| 20260905162233 | 30 | 164 | 4.8 | 8.0 | 0.00 | 0.00 | 0.00 | 67 | 1015.4 |
| 20260905161723 | 30 | 142 | 8.0 | 11.3 | 0.00 | 0.00 | 0.00 | 66 | 1015.4 |
| 20260905161221 | 30 | 143 | 4.8 | 11.3 | 0.00 | 0.00 | 0.00 | 65 | 1015.2 |
| 20260905160720 | 30 | 193 | 0.0 | 9.7 | 0.00 | 0.00 | 0.00 | 66 | 1015.2 |
| 20260905160220 | 30 | 171 | 0.0 | 11.3 | 0.00 | 0.00 | 0.00 | 64 | 1015.3 |
| 20260905155714 | 30 | 193 | 3.2 | 6.4 | 0.00 | 0.00 | 0.00 | 66 | 1015.5 |
| 20260905155213 | 30 | 135 | 4.8 | 8.0 | 0.00 | 0.00 | 0.00 | 64 | 1015.6 |
| 20260905154707 | 30 | 105 | 0.0 | 8.0 | 0.00 | 0.00 | 0.00 | 66 | 1016.0 |
| 20260905154203 | 30 | 138 | 1.6 | 4.8 | 0.00 | 0.00 | 0.00 | 67 | 1015.9 |
| 20260905153659 | 28 | 215 | 6.4 | 9.7 | 0.00 | 0.00 | 0.00 | 68 | 1016.0 |
| 20260905153154 | 28 | 136 | 8.0 | 11.3 | 0.00 | 0.00 | 0.00 | 67 | 1015.9 |
| 20260905152649 | 29 | 223 | 4.8 | 8.0 | 0.00 | 0.00 | 0.00 | 66 | 1015.9 |
| 20260905152144 | 28 | 136 | 6.4 | 14.5 | 0.00 | 0.00 | 0.00 | 68 | 1015.7 |
| 20260905151638 | 28 | 138 | 6.4 | 6.4 | 0.00 | 0.00 | 0.00 | 65 | 1015.7 |
| 20260905151134 | 28 | 156 | 4.8 | 8.0 | 0.00 | 0.00 | 0.00 | 69 | 1015.8 |
| 20260905150629 | 28 | 159 | 6.4 | 9.7 | 0.00 | 0.00 | 0.00 | 69 | 1015.8 |
| 20260905150127 | 28 | 125 | 0.0 | 11.3 | 0.00 | 0.00 | 0.00 | 72 | 1015.7 |
| 20260905145626 | 28 | 132 | 6.4 | 9.7 | 0.00 | 0.00 | 0.00 | 72 | 1015.8 |
| 20260905145125 | 28 | 155 | 3.2 | 8.0 | 0.00 | 0.00 | 0.00 | 72 | 1015.7 |
| 20260905144620 | 27 | 151 | 6.4 | 14.5 | 0.00 | 0.00 | 0.00 | 73 | 1015.6 |
| 20260905144119 | 27 | 144 | 4.8 | 6.4 | 0.00 | 0.00 | 0.00 | 72 | 1015.9 |
| 20260905143614 | 27 | 63 | 4.8 | 12.9 | 0.00 | 0.00 | 0.00 | 73 | 1016.0 |
| 20260905143109 | 26 | 147 | 4.8 | 11.3 | 0.00 | 0.00 | 0.00 | 75 | 1016.2 |
| 20260905142608 | 26 | 173 | 6.4 | 16.1 | 0.00 | 0.00 | 0.00 | 74 | 1016.1 |
| 20260905142102 | 27 | 152 | 8.0 | 9.7 | 0.00 | 0.00 | 0.00 | 76 | 1016.2 |
| 20260905141601 | 26 | 131 | 1.6 | 8.0 | 0.00 | 0.00 | 0.00 | 77 | 1016.1 |
| 20260905141058 | 26 | 172 | 6.4 | 14.5 | 0.00 | 0.00 | 0.00 | 76 | 1016.2 |
| 20260905140553 | 26 | 148 | 8.0 | 14.5 | 0.00 | 0.00 | 0.00 | 76 | 1015.9 |
| 20260905140052 | 26 | 203 | 1.6 | 14.5 | 0.00 | 0.00 | 0.00 | 76 | 1016.1 |
| 20260905135548 | 26 | 135 | 4.8 | 9.7 | 0.00 | 0.00 | 0.00 | 79 | 1016.0 |
| 20260905135047 | 26 | 71 | 3.2 | 8.0 | 0.00 | 0.00 | 0.00 | 79 | 1016.2 |
| 20260905134542 | 26 | 172 | 3.2 | 8.0 | 0.00 | 0.00 | 0.00 | 79 | 1016.3 |
| 20260905134041 | 26 | 122 | 4.8 | 8.0 | 0.00 | 0.00 | 0.00 | 82 | 1016.0 |
| 20260905133536 | 26 | 163 | 6.4 | 16.1 | 0.00 | 0.00 | 0.00 | 82 | 1016.4 |
| 20260905133031 | 25 | 138 | 3.2 | 12.9 | 0.00 | 0.00 | 0.00 | 83 | 1016.3 |
| 20260905132531 | 25 | 112 | 8.0 | 19.3 | 0.00 | 0.00 | 0.00 | 83 | 1016.3 |
| 20260905132026 | 25 | 111 | 3.2 | 14.5 | 0.00 | 0.00 | 0.00 | 83 | 1016.3 |
| 20260905131521 | 25 | 176 | 6.4 | 11.3 | 0.00 | 0.00 | 0.00 | 84 | 1016.3 |
| 20260905131016 | 25 | 107 | 3.2 | 12.9 | 0.00 | 0.00 | 0.00 | 87 | 1016.2 |
| 20260905130515 | 25 | 124 | 3.2 | 11.3 | 0.00 | 0.00 | 0.00 | 88 | 1016.2 |
| 20260905130011 | 25 | 157 | 0.0 | 8.0 | 0.00 | 0.00 | 0.00 | 88 | 1016.3 |
| 20260905125505 | 25 | 145 | 4.8 | 9.7 | 0.00 | 0.00 | 0.00 | 88 | 1016.4 |
| 20260905125000 | 25 | 138 | 3.2 | 9.7 | 0.00 | 0.00 | 0.00 | 88 | 1016.3 |
| 20260905124457 | 25 | 143 | 6.4 | 14.5 | 0.00 | 0.00 | 0.00 | 88 | 1016.3 |
| 20260905123952 | 25 | 144 | 4.8 | 6.4 | 0.00 | 0.00 | 0.00 | 89 | 1015.9 |
| 20260905123448 | 25 | 147 | 4.8 | 8.0 | 0.00 | 0.00 | 0.00 | 92 | 1015.9 |
| 20260905122948 | 24 | 147 | 3.2 | 8.0 | 0.00 | 0.00 | 0.00 | 94 | 1015.7 |
| 20260905122443 | 23 | 127 | 6.4 | 11.3 | 0.00 | 0.00 | 0.00 | 95 | 1016.0 |
| 20260905121938 | 24 | 29 | 0.0 | 1.6 | 0.00 | 0.00 | 0.00 | 95 | 1015.2 |
| 20260905121434 | 24 | 167 | 3.2 | 3.2 | 0.00 | 0.00 | 0.00 | 94 | 1015.2 |
| 20260905120933 | 24 | 135 | 0.0 | 1.6 | 0.00 | 0.00 | 0.00 | 94 | 1015.1 |
| 20260905120427 | 23 | 230 | 1.6 | 3.2 | 0.00 | 0.00 | 0.00 | 94 | 1015.0 |
| 20260905115922 | 23 | 230 | 0.0 | 0.0 | 0.00 | 0.00 | 0.00 | 95 | 1015.1 |
| 20260905115421 | 23 | 22 | 0.0 | 1.6 | 0.00 | 0.00 | 0.00 | 95 | 1014.7 |
| 20260905114917 | 23 | 244 | 0.0 | 3.2 | 0.00 | 0.00 | 0.00 | 95 | 1014.8 |
| 20260905114416 | 23 | 89 | 0.0 | 0.0 | 0.00 | 0.00 | 0.00 | 96 | 1014.7 |
| 20260905113910 | 23 | 82 | 1.6 | 1.6 | 0.00 | 0.00 | 0.00 | 96 | 1014.8 |
| 20260905113405 | 23 | 50 | 0.0 | 0.0 | 0.00 | 0.00 | 0.00 | 96 | 1014.8 |
| 20260905112901 | 23 | 45 | 1.6 | 3.2 | 0.00 | 0.00 | 0.00 | 96 | 1014.6 |
| 20260905112356 | 23 | 114 | 1.6 | 1.6 | 0.00 | 0.00 | 0.00 | 96 | 1014.5 |
| 20260905111850 | 23 | 129 | 0.0 | 1.6 | 0.00 | 0.00 | 0.00 | 96 | 1014.5 |
| 20260905111344 | 23 | 240 | 0.0 | 0.0 | 0.00 | 0.00 | 0.00 | 96 | 1014.5 |
| 20260905110844 | 23 | 217 | 0.0 | 1.6 | 0.00 | 0.00 | 0.00 | 96 | 1014.5 |
| 20260905110338 | 23 | 291 | 0.0 | 3.2 | 0.00 | 0.00 | 0.00 | 96 | 1014.4 |
| 20260905105834 | 23 | 229 | 0.0 | 1.6 | 0.00 | 0.00 | 0.00 | 96 | 1014.2 |
| 20260905105333 | 23 | 44 | 0.0 | 0.0 | 0.00 | 0.00 | 0.00 | 96 | 1014.4 |
| 20260905104827 | 23 | 25 | 0.0 | 0.0 | 0.00 | 0.00 | 0.00 | 96 | 1014.6 |
| 20260905104324 | 23 | 25 | 0.0 | 1.6 | 0.00 | 0.00 | 0.00 | 96 | 1014.5 |
| 20260905103823 | 23 | 104 | 0.0 | 1.6 | 0.00 | 0.00 | 0.00 | 96 | 1014.5 |
| 20260905103319 | 24 | 129 | 0.0 | 1.6 | 0.00 | 0.00 | 0.00 | 96 | 1014.6 |
| 20260905102815 | 24 | 142 | 0.0 | 1.6 | 0.00 | 0.00 | 0.00 | 95 | 1014.6 |
| 20260905102311 | 24 | 321 | 0.0 | 1.6 | 0.00 | 0.00 | 0.00 | 95 | 1014.7 |
| 20260905101811 | 24 | 225 | 0.0 | 1.6 | 0.00 | 0.00 | 0.00 | 95 | 1014.7 |
| 20260905101309 | 24 | 243 | 1.6 | 3.2 | 0.00 | 0.00 | 0.00 | 95 | 1014.6 |
| 20260905100803 | 24 | 242 | 0.0 | 1.6 | 0.00 | 0.00 | 0.00 | 95 | 1014.7 |
| 20260905100259 | 24 | 239 | 1.6 | 3.2 | 0.00 | 0.00 | 0.00 | 95 | 1014.7 |
| 20260905095758 | 24 | 244 | 3.2 | 3.2 | 0.00 | 0.00 | 0.00 | 95 | 1014.7 |
| 20260905095253 | 24 | 230 | 0.0 | 3.2 | 0.00 | 0.00 | 0.00 | 95 | 1014.4 |
| 20260905094748 | 24 | 32 | 0.0 | 1.6 | 0.00 | 0.00 | 0.00 | 95 | 1014.5 |
| 20260905094244 | 24 | 195 | 0.0 | 0.0 | 0.00 | 0.00 | 0.00 | 95 | 1014.4 |
| 20260905093742 | 24 | 218 | 0.0 | 3.2 | 0.00 | 0.00 | 0.00 | 95 | 1014.3 |
| 20260905093238 | 24 | 212 | 0.0 | 1.6 | 0.00 | 0.00 | 0.00 | 95 | 1014.4 |
| 20260905092734 | 24 | 254 | 0.0 | 4.8 | 0.00 | 0.00 | 0.00 | 95 | 1014.6 |
| 20260905092229 | 24 | 255 | 0.0 | 1.6 | 0.00 | 0.00 | 0.00 | 95 | 1014.5 |